Flag for U.S.A. Weather past 2 weeks in Aliso Viejo, California, U.S.A.

Now
81 °F

Broken clouds.


Feels Like: 83 °F
Forecast: 69 / 83 °F
Wind: 12 mph from Southwest

Location: John Wayne Airport-Orange County Airport

Current Time: Jul 25, 2014 at 4:18:20 PM

Latest Report: Jul 25, 2014 at 3:53 PM


Visibility: 10 mi

Pressure: 29.87 "Hg

Humidity: 56%

Dew point: 64 °F

Location of Aliso ViejoLocation

Historic Weather in Aliso Viejo — Graph

°F

Aliso Viejo temperature yesterday

Maximum temperature yesterday: 88 °F (at 1:53 PM)
Minimum temperature yesterday: 69 °F (at 5:53 AM)
Average temperature yesterday: 79 °F

Past Weeks' High & Low Weather Summary

 TemperatureHumidityPressure
High88 °F (Jul 24, 1:53 PM)82% (Jul 12, 5:53 AM)30.06 "Hg (Jul 12, 5:53 AM)
Low68 °F (Jul 12, 4:53 AM)35% (Jul 23, 2:53 PM)29.72 "Hg (Jul 24, 5:53 PM)
Average74 °F65%29.96 "Hg
* Reported Jul 10 2:53 PM — Jul 25 2:53 PM, Aliso Viejo, Weather by CustomWeather, © 2014

Note: Actual official high and low records may vary slightly from our data, if they occured in-between our weather recording intervals... More about our weather records

Advertising

Aliso Viejo weather history for previous 24 hours

 ConditionsComfort  
Time TempWeatherWind HumidityBarometerVisibility
2:53 PM
Jul 25
82 °FBroken clouds.12 mph56%29.89 "Hg10 mi
1:53 PM82 °FBroken clouds.17 mph56%29.90 "Hg10 mi
12:53 PM81 °FBroken clouds.12 mph60%29.89 "Hg10 mi
11:53 AM80 °FBroken clouds.9 mph60%29.90 "Hg10 mi
10:53 AM80 °FScattered clouds.9 mph60%29.89 "Hg10 mi
9:53 AM80 °FScattered clouds.5 mph58%29.89 "Hg10 mi
8:53 AM77 °FScattered clouds.No wind62%29.88 "Hg10 mi
7:53 AM74 °FPartly sunny.6 mph71%29.88 "Hg10 mi
6:53 AM74 °FPassing clouds.7 mph71%29.87 "Hg10 mi
5:53 AM73 °FOvercast.3 mph74%29.86 "Hg10 mi
4:53 AM74 °FPassing clouds.No wind74%29.86 "Hg10 mi
3:53 AM73 °FClear.No wind76%29.84 "Hg10 mi
2:53 AM73 °FClear.No wind76%29.85 "Hg10 mi
1:53 AM75 °FClear.No wind66%29.84 "Hg10 mi
12:53 AM74 °FClear.5 mph71%29.84 "Hg10 mi
11:53 PM
Jul 24
74 °FClear.3 mph74%29.83 "Hg10 mi
10:53 PM74 °FPassing clouds.8 mph74%29.81 "Hg10 mi
9:53 PM75 °FClear.7 mph69%29.80 "Hg10 mi
8:53 PM77 °FPassing clouds.7 mph62%29.77 "Hg10 mi
7:53 PM82 °FPassing clouds.6 mph51%29.75 "Hg10 mi
6:53 PM87 °FPassing clouds.6 mph37%29.73 "Hg10 mi
5:53 PM88 °FPassing clouds.6 mph39%29.72 "Hg10 mi
4:53 PM88 °FScattered clouds.7 mph39%29.74 "Hg10 mi
Weather by CustomWeather, © 2014

See weather overviewHow to use our weather pages